Location: Sternwarte auf dem Internationalen Platz Vogelsang IP
(50.5721°N, 6.4398°E)
Time: 18:47:33
(UTC+01:00)

A-11 Canister half - Pass Details

Date: 17 December 2025
Orbit: 1511 x 1688 km, 47.2° (Epoch: 19 January)

Event Time Altitude Azimuth Distance (km) Brightness Sun altitude
Rises 13:44:04 0° 207° (SSW) 4,638 13.3 14.3°
Reaches altitude 10° 13:47:28 10° 198° (SSW) 3,665 14.4 14.1°
Maximum altitude 13:55:16 32° 139° (SE) 2,381 10.6 13.7°
Drops below altitude 10° 14:03:15 10° 81° (E) 3,755 10.8 13.3°
Sets 14:06:46 0° 72° (ENE) 4,767 11.2 13.1°
